Temperature
22 22 21 21 20 19 20 21 21 21 20 20 20 20 19 18 18 18 18 18 18 18 18 18 18 18 18 18 18 18 18 18 18 18 18 18 18 18 18 18 18 18 18 18 18 18 18 18 18
22 22 21 21 19 19 20 21 21 21 20 21 20 20 19 18 18 18 18 18 18 18 18 18 18 18 18 18 18 18 18 18 19 18 18 18 18 18 18 18 18 18 18 18 18 18 18 18 18
22 22 22 20 20 20 20 21 21 21 21 21 20 19 19 18 18 18 18 18 18 18 18 18 18 18 18 18 18 18 18 18 19 18 18 18 18 18 18 18 18 18 18 18 18 18 18 18 18
22 22 22 20 21 21 21 21 21 21 21 21 20 19 19 18 19 19 19 18 19 18 18 18 18 18 18 18 18 18 18 18 19 18 18 18 18 18 18 18 18 18 18 18 18 18 18 18 18
23 23 20 20 21 22 22 22 22 21 21 20 20 19 18 19 19 19 19 19 19 19 18 19 19 19 19 19 18 18 19 18 19 18 18 18 18 18 18 18 18 18 18 18 18 18 18 18 18
23 21 20 20 22 22 22 22 22 21 20 20 20 18 18 19 19 19 19 19 19 19 19 19 19 19 19 19 19 19 19 19 19 19 18 18 18 18 18 18 18 18 18 18 18 18 18 18 18
23 20 21 22 22 22 23 22 21 21 20 20 20 18 18 19 19 19 19 19 19 19 19 19 19 19 19 19 19 19 19 19 19 18 18 18 18 18 18 18 18 18 18 18 18 18 18 18 18
24 21 22 21 22 22 23 22 22 21 21 21 20 19 18 19 19 19 19 19 19 19 19 19 19 19 19 19 19 19 19 19 19 18 18 18 18 18 18 18 18 18 18 18 18 18 18 18 18
25 21 21 22 22 22 23 22 22 22 21 21 20 20 20 19 19 19 19 19 19 19 19 19 19 19 19 19 19 19 19 19 19 18 18 18 18 18 18 18 18 18 18 18 18 18 18 18 18
24 21 23 23 22 22 23 22 22 22 21 20 20 20 19 19 19 19 19 19 19 19 19 19 19 19 19 19 19 19 19 19 19 19 18 18 18 18 18 18 18 18 18 18 18 18 18 18 18
24 23 24 24 24 24 23 22 22 21 20 20 20 20 19 19 19 19 19 19 19 19 19 19 19 19 19 19 19 19 19 19 19 19 18 18 18 18 18 18 18 18 18 18 18 18 18 18 18
24 24 25 24 24 24 23 22 22 21 21 22 21 21 20 19 19 19 19 19 19 19 19 19 19 19 19 19 19 19 19 19 18 18 18 18 18 18 18 18 18 18 18 18 18 18 18 18 18
25 25 25 25 24 24 23 22 22 22 22 21 21 20 20 20 20 20 20 20 19 19 19 19 19 19 19 19 19 19 19 19 18 18 18 18 18 18 18 18 18 18 18 18 18 18 18 18 17
25 24 24 24 24 24 23 22 22 22 22 21 20 20 20 20 20 20 20 20 20 20 20 19 19 19 19 19 19 19 19 18 18 18 18 18 18 18 18 18 18 18 18 18 18 18 18 17 17
25 24 24 24 24 24 23 22 22 22 22 21 20 20 20 20 20 20 20 20 20 20 20 20 19 19 19 19 19 18 18 18 18 18 18 18 18 18 18 18 18 18 18 18 18 18 17 17 17
24 23 23 24 24 24 23 22 22 22 22 21 20 20 20 21 21 21 21 20 20 20 20 20 19 19 19 19 19 19 18 18 18 18 18 18 18 18 18 18 18 18 18 18 18 18 18 17 17
23 23 23 24 24 23 23 22 22 22 22 21 21 21 21 21 21 21 21 21 20 20 20 20 20 19 19 19 19 19 18 18 18 18 18 18 18 18 18 18 18 18 18 18 18 18 17 17 17
23 23 24 24 24 23 22 22 22 22 22 21 21 21 21 21 21 21 21 21 21 20 20 20 20 19 19 19 19 19 19 18 18 18 18 18 18 18 18 18 18 18 18 17 18 17 17 17 17
24 24 24 24 24 24 23 22 22 22 22 21 21 21 21 22 22 22 21 21 21 21 20 20 20 20 19 19 19 19 19 18 18 18 18 18 18 18 18 18 17 17 17 17 17 17 17 17 17
25 24 24 24 24 24 23 23 22 22 22 22 22 22 22 22 22 22 22 21 21 21 21 20 20 20 20 19 19 19 18 18 18 18 18 18 18 18 18 18 17 17 17 17 17 17 17 17 17
25 24 24 24 24 23 23 23 22 22 22 22 22 22 23 23 23 22 22 22 21 21 21 21 20 20 20 19 19 19 18 18 18 18 18 18 18 18 18 17 17 17 17 17 17 17 17 17 17
24 25 25 25 23 22 23 22 22 21 21 22 22 23 23 23 23 23 22 22 22 21 21 21 20 20 20 19 19 19 19 19 18 18 18 18 18 18 18 17 17 17 17 17 17 17 17 17 17
25 24 24 23 22 22 22 22 22 21 21 21 22 23 23 23 23 23 22 22 22 22 21 21 21 20 20 20 19 19 19 19 18 18 18 18 18 18 18 17 17 17 17 17 17 17 17 17 17
24 23 22 20 20 22 22 22 22 20 21 22 22 23 23 23 23 23 23 22 22 22 21 21 21 20 20 20 19 19 19 19 18 18 18 18 18 18 18 17 17 17 17 17 17 17 17 17 17
24 22 21 22 20 21 21 22 22 22 22 22 23 23 24 23 23 23 23 22 22 22 22 21 21 20 20 20 19 19 19 19 18 18 18 18 18 18 18 17 17 17 17 17 17 17 17 17 17
23 22 21 22 21 21 21 22 22 23 23 24 24 24 24 24 23 23 23 23 23 22 22 22 21 21 20 20 19 19 19 19 18 18 18 18 18 18 18 17 17 17 17 17 17 17 17 17 17
23 21 21 19 21 21 21 21 22 22 22 22 23 23 23 23 23 23 23 23 23 23 22 22 21 21 20 20 19 19 19 19 18 18 18 18 18 17 17 17 17 17 17 17 17 17 17 17 17
22 19 18 19 20 22 22 22 22 22 22 21 21 22 23 23 23 23 23 23 23 23 22 22 21 21 21 20 20 19 19 19 18 18 18 18 18 17 17 17 17 17 17 17 17 17 17 17 17
22 20 18 17 19 20 21 22 22 22 21 21 21 22 23 23 23 23 23 23 23 23 22 22 21 21 20 20 20 19 19 19 19 18 18 18 18 17 17 17 17 17 17 17 17 17 16 16 16
23 21 19 21 19 18 20 21 23 21 21 21 22 23 23 23 23 23 23 23 23 23 22 22 22 21 21 20 20 19 19 19 19 19 18 18 18 18 17 17 17 17 17 17 17 16 16 16 16
Wind_Speed
9 7 3 1 5 6 5 4 3 4 4 4 7 7 7 5 3 4 1 2 3 2 3 7 9 9 10 10 11 11 11 11 12 12 13 13 13 13 14 14 14 15 15 14 14 15 16 16 16
6 5 1 3 5 5 4 4 5 4 4 4 6 7 7 6 4 5 2 2 3 3 3 6 9 9 10 10 11 11 11 11 11 12 12 12 12 13 14 14 14 14 15 14 14 14 15 15 15
6 2 2 5 5 4 3 2 6 6 5 4 4 6 5 4 3 2 1 3 3 3 3 5 8 9 9 10 10 10 11 11 11 11 11 12 12 12 13 13 14 13 13 13 14 14 14 14 14
3 2 4 7 7 2 4 4 6 5 5 6 5 6 4 4 3 3 4 4 4 3 3 5 8 8 9 9 10 10 10 10 10 11 11 11 11 11 12 12 12 12 12 12 12 13 13 13 13
2 4 7 6 5 4 5 5 4 5 4 6 6 5 4 4 6 6 5 4 3 2 3 4 7 8 8 8 9 9 9 9 9 10 10 10 11 11 11 11 11 11 11 11 11 11 11 11 12
4 5 6 5 5 4 4 4 6 8 6 5 5 4 3 2 5 5 5 4 3 3 3 4 6 7 7 8 8 8 8 8 8 9 9 10 10 10 10 10 10 9 9 10 10 10 10 9 10
4 5 5 5 5 4 4 4 5 6 6 4 3 4 2 1 3 4 4 4 3 3 3 3 4 5 6 7 7 8 8 8 8 8 8 9 9 9 9 8 8 8 8 8 9 9 9 9 9
4 5 4 3 4 3 4 4 4 5 5 4 4 5 3 2 4 5 5 4 3 2 2 2 4 5 5 5 6 7 7 7 7 7 7 7 7 7 7 6 7 7 7 7 8 8 8 8 8
4 5 3 4 6 4 5 4 3 4 6 3 3 4 5 8 7 6 4 3 1 1 1 2 3 3 4 3 4 5 6 6 6 6 7 6 5 5 5 5 6 6 6 6 7 7 8 7 7
5 4 5 5 7 7 6 5 5 5 5 4 6 7 9 9 7 5 4 3 1 1 0 1 1 2 2 2 4 5 5 5 5 5 5 5 4 4 3 4 5 4 5 5 6 6 6 6 5
4 5 3 4 6 8 7 5 3 7 3 4 8 10 9 8 6 5 4 3 3 2 1 1 1 1 1 2 3 3 4 4 4 4 4 4 4 3 3 3 3 4 4 4 5 5 5 5 4
4 2 5 5 7 7 7 5 5 3 4 6 10 11 9 8 6 5 5 4 2 2 2 1 1 1 1 1 2 2 2 2 2 2 3 3 2 2 2 2 2 3 3 3 3 3 5 5 4
4 3 5 8 10 8 8 6 5 2 5 8 10 9 8 7 5 4 4 4 4 3 3 2 2 2 1 1 1 1 1 1 1 1 2 2 2 1 2 2 2 2 3 3 3 3 4 4 4
4 7 7 7 8 5 7 4 4 3 7 9 9 8 7 7 6 4 4 4 5 4 4 3 3 2 2 2 1 0 0 1 0 0 1 1 1 1 1 1 2 2 2 3 3 3 4 3 3
8 9 8 4 4 4 7 4 1 5 8 8 8 7 6 5 5 5 6 5 5 4 4 4 4 3 3 3 2 1 0 0 0 1 1 1 2 2 2 1 1 1 3 4 4 4 4 4 4
6 6 3 1 3 4 6 2 4 6 9 8 7 7 6 5 5 5 5 4 4 4 4 4 4 4 4 3 2 1 1 1 1 0 1 1 2 2 2 2 1 1 3 3 3 3 4 4 4
5 4 3 2 3 4 4 4 4 7 9 8 7 7 6 5 5 4 4 5 5 5 5 5 4 4 4 3 2 2 2 2 1 1 1 1 2 3 3 2 1 2 2 2 3 3 3 4 4
5 5 3 5 4 5 4 4 4 8 9 8 7 7 6 7 7 5 4 5 5 5 5 5 4 4 3 3 2 2 2 2 2 1 1 1 2 3 3 2 2 3 2 2 3 4 4 4 4
7 6 4 4 4 6 5 5 5 7 8 8 7 7 7 8 6 4 5 5 4 4 5 5 5 4 4 2 2 2 1 1 1 1 1 1 2 3 3 2 2 2 2 2 3 4 4 3 3
7 5 2 1 2 5 3 3 3 8 10 10 9 9 8 6 5 5 5 5 5 5 6 5 5 5 4 3 2 2 2 1 1 1 2 2 1 2 2 2 2 2 2 2 3 4 3 2 2
4 6 5 3 3 4 3 3 2 4 6 7 7 8 8 9 8 7 6 6 6 6 6 7 6 5 4 4 3 3 3 2 2 1 1 1 1 1 2 2 2 2 2 2 2 3 3 2 1
4 5 6 6 5 0 2 2 6 4 5 8 9 9 9 8 7 7 7 7 7 7 6 5 5 5 4 5 4 4 3 2 1 1 0 1 2 1 1 2 3 2 2 2 3 3 2 3 2
5 4 6 5 6 2 2 2 7 1 5 10 10 10 9 9 9 9 9 8 7 6 6 5 5 4 4 5 5 5 3 2 1 1 1 1 2 2 1 1 1 2 2 2 2 2 2 2 2
7 8 8 7 5 1 3 3 6 4 8 7 9 10 9 9 9 9 7 6 5 5 5 6 5 4 4 5 5 5 5 3 2 1 0 1 1 1 1 1 1 1 1 2 2 2 3 2 2
6 7 4 4 3 5 3 3 8 7 7 8 8 9 10 10 9 9 8 8 7 7 7 6 6 5 4 5 5 5 5 4 4 2 1 0 0 1 1 1 1 0 1 2 2 2 2 2 3
5 9 8 6 5 4 1 5 7 6 4 4 5 6 7 8 9 10 10 10 9 9 8 8 7 6 5 5 4 4 4 3 3 3 2 1 1 1 1 1 1 1 1 1 2 2 2 2 2
7 4 7 7 3 1 4 7 8 3 1 1 2 4 6 8 9 9 9 9 9 9 9 9 9 7 6 5 4 4 4 3 3 3 2 1 1 0 1 1 1 1 1 1 2 2 2 2 2
6 9 6 6 6 2 4 4 5 5 4 3 3 5 6 6 7 8 8 9 8 8 8 8 8 8 7 6 5 5 4 4 4 3 3 2 1 1 1 1 1 1 1 1 1 1 1 2 1
4 5 6 6 6 7 3 7 6 8 7 7 7 6 7 7 8 8 8 8 8 7 7 8 8 7 6 6 6 5 4 4 4 3 3 2 1 1 1 1 1 1 1 1 2 1 1 2 1
4 7 8 6 4 5 5 7 6 6 6 6 6 6 6 7 7 7 7 7 8 8 7 8 8 8 7 7 6 5 5 4 4 3 3 3 2 1 1 1 2 2 1 1 2 2 2 2 2
Wind_Direction
151 146 145 112 56 54 42 18 55 54 50 51 68 78 80 60 69 111 326 88 88 73 66 89 90 91 90 88 86 87 90 94 99 103 108 109 109 109 109 106 106 109 107 106 108 111 115 116 119
145 153 146 59 72 66 23 12 61 67 119 119 68 65 66 56 57 94 82 77 81 82 68 93 93 91 91 88 88 88 90 94 98 106 110 110 110 110 110 109 108 109 107 105 106 110 112 115 118
159 177 73 65 73 108 114 72 99 96 88 71 65 55 65 69 80 103 122 107 83 75 74 99 96 93 91 88 89 89 88 95 101 107 110 110 109 110 111 109 108 109 108 107 107 109 111 115 117
140 57 55 66 67 79 132 133 121 106 61 48 75 63 54 54 101 119 118 105 93 70 73 98 98 94 91 89 89 88 87 93 102 108 110 110 109 109 110 112 110 110 110 110 112 113 115 117 117
69 72 60 57 52 60 94 121 84 79 63 56 70 77 45 15 86 106 107 99 97 69 65 96 100 96 93 90 88 87 88 91 104 111 111 111 111 111 110 109 110 110 110 112 117 119 120 123 123
63 67 76 76 77 74 86 88 87 83 85 76 69 75 45 51 96 106 97 89 84 74 59 82 100 99 95 90 87 87 89 93 104 116 112 111 111 110 108 108 109 108 107 111 116 120 122 120 122
97 84 95 105 98 98 123 97 90 103 93 77 85 80 62 56 102 100 89 83 71 66 58 52 73 89 93 92 87 88 87 89 96 106 109 110 112 110 108 105 105 105 108 113 117 118 122 121 119
125 94 77 89 115 116 127 102 101 105 97 112 98 116 156 185 120 94 82 76 68 61 48 47 56 66 70 74 84 88 89 89 92 101 110 111 111 106 105 103 105 106 106 109 116 121 125 125 121
95 77 121 163 152 142 137 116 108 83 103 95 84 120 143 133 121 102 85 63 56 83 34 43 54 60 62 64 71 71 78 79 81 85 96 90 78 79 87 104 106 103 99 101 107 122 124 121 121
86 115 191 179 158 140 132 125 136 109 94 78 75 82 114 127 133 135 145 162 187 208 261 64 66 67 49 56 51 42 46 52 59 63 68 69 71 70 82 93 99 94 91 92 96 108 111 104 107
115 151 159 116 129 125 124 124 105 121 125 155 140 136 137 139 143 154 169 182 199 202 195 141 136 90 65 52 54 40 31 38 45 43 48 62 59 59 56 52 61 59 67 62 72 81 89 91 96
114 116 128 121 114 117 130 126 105 131 177 151 143 144 146 154 166 179 185 190 178 172 202 187 152 124 93 69 46 45 35 31 29 29 49 65 61 53 51 55 52 49 52 62 58 72 82 89 98
101 94 90 106 104 109 105 107 120 120 117 123 131 139 153 167 179 189 187 178 166 177 193 192 173 178 164 103 35 75 46 32 8 20 30 64 85 74 66 73 61 52 56 75 72 79 86 91 101
105 84 85 92 98 107 108 98 96 144 128 132 145 159 172 179 181 180 183 183 180 186 191 185 182 186 161 145 131 104 6 307 3 6 47 102 131 117 94 72 64 59 56 75 86 89 95 92 93
91 84 65 71 88 110 104 70 179 160 140 149 165 177 186 190 185 192 195 190 187 185 183 179 179 163 153 158 168 137 172 153 8 324 76 132 144 141 135 104 76 67 73 82 87 86 89 94 89
68 77 95 228 112 122 113 184 215 158 153 168 180 189 199 207 205 207 197 190 180 172 171 177 173 155 159 154 143 117 108 119 114 55 83 116 141 146 131 109 94 82 86 95 100 95 89 85 83
54 120 167 213 175 143 143 206 206 164 169 183 190 197 205 214 228 222 201 189 180 175 169 165 162 156 161 145 125 107 83 80 83 87 108 129 134 138 130 117 113 100 95 91 108 99 106 102 93
175 161 174 204 199 153 173 217 194 175 184 197 199 202 208 215 224 215 200 189 178 172 165 163 158 157 144 120 102 85 70 58 53 57 72 126 136 130 132 123 107 109 98 92 101 104 99 107 104
150 150 174 212 178 160 196 216 205 185 193 206 208 207 214 221 218 201 193 181 167 166 166 169 166 171 149 134 134 125 134 86 56 52 48 79 125 132 131 123 114 117 120 127 122 115 111 111 108
132 139 183 283 141 158 190 247 211 193 206 207 207 209 213 215 209 199 187 175 176 182 182 176 176 174 169 154 139 138 135 132 133 37 37 39 84 123 143 135 149 143 132 119 124 127 128 149 135
163 170 181 163 81 70 94 334 248 221 209 210 210 208 207 205 204 199 189 186 181 190 193 192 185 179 173 151 116 101 77 55 44 32 15 11 60 99 132 147 150 152 155 157 159 153 150 166 178
209 207 163 134 112 351 114 262 280 240 223 217 216 209 208 204 193 190 186 182 186 193 184 179 177 175 167 153 152 153 156 167 203 200 340 2 32 64 115 145 155 161 166 169 183 176 163 151 173
187 118 118 118 120 73 44 154 284 246 237 235 223 213 204 195 186 185 185 184 183 179 171 170 164 166 161 160 165 161 159 168 149 108 69 360 14 34 57 104 139 164 176 183 177 166 167 170 172
121 77 60 52 73 87 231 169 276 234 225 234 223 214 202 191 187 184 176 168 170 166 162 158 154 164 159 157 159 164 165 160 144 138 122 1 6 10 26 77 108 139 164 181 186 178 173 178 171
102 97 53 20 16 250 247 184 249 252 229 221 220 212 202 186 182 177 168 175 177 174 169 161 160 170 164 159 164 169 166 161 168 175 178 174 3 343 333 38 59 124 159 159 160 168 177 176 173
163 139 154 179 207 265 312 231 254 268 249 224 214 198 188 181 181 182 183 183 181 178 173 168 169 176 168 167 173 169 166 170 174 176 177 184 205 258 345 30 48 82 120 144 146 157 181 175 182
137 155 155 130 138 134 282 288 307 333 6 68 183 175 186 190 185 186 184 181 179 178 179 177 175 176 173 173 168 165 167 166 166 161 156 167 185 168 70 52 71 98 114 141 147 158 185 174 169
130 140 105 120 143 216 293 281 257 269 249 235 218 208 203 192 182 181 180 179 178 177 175 171 173 177 177 174 178 179 175 174 165 150 152 158 163 129 103 84 84 93 100 127 143 148 160 141 143
106 97 104 111 143 153 218 267 232 223 219 212 221 215 199 191 188 184 178 173 170 166 168 172 173 173 174 176 178 175 171 166 156 155 165 168 158 135 145 153 152 140 124 120 129 135 132 137 130
146 150 144 150 187 164 169 259 278 229 220 207 212 209 194 189 185 177 170 165 166 170 172 178 176 180 181 177 174 177 171 161 161 167 172 164 160 151 157 149 144 145 129 126 136 134 116 129 130
Height
1478 1478 1479 1482 1485 1497 1504 1499 1495 1495 1496 1497 1496 1496 1499 1502 1506 1512 1509 1507 1507 1507 1507 1507 1507 1507 1506 1506 1505 1504 1504 1505 1505 1506 1507 1508 1509 1510 1511 1511 1512 1513 1514 1515 1516 1517 1519 1520 1523
1479 1480 1482 1483 1495 1511 1509 1500 1498 1497 1498 1498 1498 1500 1501 1504 1506 1507 1508 1509 1509 1508 1508 1508 1508 1508 1508 1508 1507 1507 1507 1507 1507 1508 1509 1510 1511 1512 1513 1514 1515 1516 1517 1518 1519 1520 1521 1523 1525
1481 1482 1484 1488 1501 1510 1508 1501 1499 1499 1499 1499 1501 1502 1505 1507 1508 1509 1510 1510 1510 1510 1510 1510 1510 1510 1510 1510 1509 1509 1509 1509 1509 1510 1511 1512 1513 1515 1516 1517 1518 1519 1520 1521 1522 1523 1524 1526 1528
1482 1484 1487 1495 1504 1502 1501 1500 1499 1500 1501 1502 1503 1506 1509 1511 1511 1511 1511 1511 1512 1512 1512 1512 1512 1512 1512 1512 1512 1512 1512 1512 1512 1512 1513 1515 1516 1517 1518 1520 1521 1522 1523 1524 1525 1527 1528 1529 1531
1484 1486 1495 1505 1505 1502 1500 1501 1501 1501 1503 1505 1505 1509 1512 1513 1513 1513 1513 1513 1514 1514 1514 1514 1514 1515 1514 1514 1514 1514 1514 1514 1514 1515 1516 1517 1518 1520 1521 1522 1524 1525 1526 1527 1529 1530 1531 1533 1534
1486 1489 1506 1513 1508 1503 1503 1503 1504 1505 1506 1508 1509 1511 1514 1515 1515 1515 1515 1516 1516 1516 1516 1516 1517 1517 1517 1517 1517 1516 1516 1516 1516 1517 1518 1520 1521 1522 1523 1525 1526 1528 1529 1530 1531 1532 1534 1535 1537
1488 1495 1506 1508 1509 1507 1505 1505 1506 1507 1509 1510 1511 1513 1516 1517 1517 1517 1517 1518 1518 1518 1518 1519 1519 1519 1519 1519 1519 1519 1519 1519 1519 1519 1521 1522 1523 1525 1526 1528 1529 1530 1531 1533 1534 1535 1536 1538 1539
1488 1495 1505 1508 1509 1509 1506 1506 1508 1509 1511 1512 1513 1515 1517 1518 1519 1519 1519 1520 1520 1520 1521 1521 1521 1522 1522 1522 1522 1522 1522 1522 1522 1522 1523 1525 1526 1528 1529 1531 1532 1533 1534 1535 1536 1537 1539 1540 1541
1489 1501 1510 1508 1508 1507 1506 1508 1510 1511 1512 1514 1515 1516 1518 1519 1520 1520 1521 1522 1522 1522 1523 1523 1524 1524 1525 1525 1525 1525 1525 1525 1525 1526 1526 1527 1529 1531 1532 1533 1534 1535 1536 1537 1538 1539 1540 1542 1543
1491 1504 1503 1499 1500 1503 1506 1508 1511 1513 1514 1515 1516 1518 1519 1520 1521 1522 1523 1523 1524 1524 1525 1526 1526 1527 1527 1528 1528 1528 1528 1528 1529 1529 1530 1530 1532 1533 1534 1535 1536 1537 1538 1539 1540 1541 1542 1543 1544
1492 1498 1497 1498 1499 1502 1506 1510 1511 1513 1516 1516 1516 1518 1520 1522 1523 1524 1524 1525 1526 1527 1528 1528 1529 1530 1530 1530 1531 1531 1531 1532 1532 1533 1533 1534 1535 1536 1537 1538 1539 1540 1540 1541 1542 1543 1544 1544 1545
1493 1495 1496 1498 1501 1504 1507 1510 1513 1514 1515 1516 1518 1519 1521 1523 1524 1525 1526 1527 1528 1529 1530 1531 1531 1532 1533 1533 1534 1534 1534 1535 1535 1536 1536 1537 1537 1538 1539 1540 1541 1542 1542 1543 1543 1544 1545 1546 1547
1494 1497 1498 1500 1503 1506 1509 1512 1514 1516 1517 1519 1520 1522 1523 1524 1525 1527 1528 1528 1529 1530 1532 1533 1533 1534 1535 1535 1536 1536 1536 1537 1538 1538 1539 1539 1540 1540 1541 1542 1543 1543 1544 1544 1545 1546 1546 1547 1548
1496 1498 1501 1504 1506 1509 1512 1515 1516 1518 1519 1521 1522 1523 1525 1526 1527 1528 1528 1529 1531 1532 1533 1534 1535 1536 1537 1537 1538 1538 1539 1539 1540 1540 1541 1541 1542 1542 1543 1544 1544 1545 1546 1546 1546 1547 1547 1548 1548
1497 1503 1507 1509 1509 1512 1514 1519 1518 1519 1520 1522 1523 1525 1526 1527 1528 1528 1529 1530 1532 1533 1535 1536 1536 1537 1538 1539 1540 1540 1541 1541 1542 1542 1543 1543 1543 1544 1544 1545 1546 1546 1547 1547 1547 1548 1548 1549 1549
1501 1510 1518 1512 1511 1513 1518 1526 1518 1519 1521 1522 1524 1526 1527 1528 1529 1530 1531 1532 1533 1534 1536 1537 1538 1538 1539 1540 1541 1542 1542 1543 1543 1544 1544 1544 1545 1545 1546 1546 1547 1547 1548 1548 1548 1549 1549 1549 1550
1512 1522 1521 1516 1511 1513 1518 1522 1517 1519 1521 1522 1524 1525 1527 1528 1529 1530 1531 1533 1534 1535 1536 1538 1539 1539 1540 1541 1542 1543 1544 1544 1544 1545 1545 1545 1546 1546 1546 1547 1547 1548 1548 1549 1549 1549 1549 1550 1550
1519 1520 1519 1518 1512 1513 1518 1519 1517 1518 1520 1522 1523 1525 1526 1527 1528 1530 1531 1533 1534 1535 1537 1538 1539 1540 1541 1542 1543 1543 1544 1544 1545 1545 1546 1546 1546 1547 1547 1547 1548 1548 1549 1549 1549 1550 1550 1550 1551
1506 1513 1517 1513 1508 1513 1517 1518 1517 1518 1520 1521 1522 1523 1525 1526 1528 1530 1531 1532 1534 1535 1536 1538 1539 1540 1541 1542 1543 1543 1544 1544 1545 1545 1546 1546 1547 1547 1548 1548 1548 1548 1549 1549 1549 1550 1550 1550 1551
1505 1513 1515 1511 1508 1513 1518 1518 1515 1516 1517 1518 1520 1521 1523 1525 1526 1528 1530 1531 1532 1534 1536 1537 1538 1540 1541 1542 1543 1544 1544 1544 1545 1545 1546 1546 1547 1547 1548 1548 1548 1548 1549 1549 1549 1550 1550 1550 1551
1507 1511 1512 1513 1511 1513 1518 1523 1518 1515 1515 1517 1518 1519 1520 1522 1523 1526 1528 1529 1531 1533 1535 1536 1538 1539 1540 1542 1543 1543 1544 1544 1545 1545 1546 1546 1546 1547 1547 1547 1548 1548 1548 1549 1549 1549 1549 1550 1550
1510 1502 1505 1510 1520 1529 1523 1539 1522 1516 1515 1514 1514 1515 1516 1519 1521 1523 1525 1528 1529 1531 1534 1536 1537 1539 1540 1541 1542 1543 1543 1544 1544 1545 1545 1546 1546 1546 1547 1547 1547 1547 1547 1548 1548 1548 1549 1549 1549
1501 1499 1504 1511 1521 1530 1528 1536 1528 1517 1517 1512 1510 1511 1513 1515 1518 1520 1523 1526 1528 1530 1533 1535 1536 1538 1539 1540 1541 1542 1543 1543 1544 1544 1545 1545 1545 1546 1546 1546 1546 1546 1546 1547 1547 1547 1548 1548 1548
1496 1505 1513 1521 1529 1543 1532 1537 1532 1520 1512 1507 1506 1507 1510 1512 1515 1518 1521 1524 1527 1529 1531 1533 1535 1536 1538 1539 1540 1541 1541 1542 1543 1544 1544 1544 1545 1545 1545 1545 1545 1545 1545 1546 1546 1546 1547 1547 1547
1499 1518 1539 1543 1552 1547 1531 1532 1527 1506 1502 1501 1502 1503 1506 1509 1513 1515 1518 1522 1525 1528 1530 1532 1534 1535 1537 1538 1538 1539 1540 1541 1542 1543 1543 1543 1543 1544 1544 1544 1544 1544 1544 1544 1545 1545 1545 1546 1546
1503 1512 1537 1550 1553 1546 1533 1533 1515 1500 1498 1498 1499 1500 1503 1507 1510 1513 1516 1520 1523 1525 1528 1530 1532 1534 1535 1536 1537 1538 1539 1540 1541 1542 1542 1542 1542 1543 1543 1543 1543 1543 1543 1543 1543 1544 1544 1544 1544
1504 1512 1513 1533 1540 1545 1539 1526 1509 1498 1497 1497 1498 1500 1502 1504 1508 1511 1514 1517 1520 1523 1526 1528 1530 1532 1534 1535 1537 1538 1539 1540 1540 1541 1541 1542 1542 1542 1542 1542 1542 1542 1542 1542 1542 1542 1543 1543 1543
1495 1506 1521 1534 1548 1550 1538 1531 1522 1505 1501 1498 1498 1499 1501 1503 1506 1509 1512 1515 1518 1522 1524 1527 1529 1531 1533 1534 1536 1537 1538 1539 1540 1540 1540 1541 1541 1541 1541 1541 1541 1541 1541 1542 1542 1541 1542 1542 1542
1501 1509 1519 1532 1533 1547 1548 1533 1502 1499 1496 1496 1496 1497 1499 1502 1504 1507 1510 1513 1517 1520 1522 1525 1527 1529 1531 1533 1535 1536 1537 1538 1539 1539 1539 1540 1540 1541 1541 1541 1541 1541 1541 1541 1541 1541 1541 1541 1541
1491 1501 1513 1524 1534 1537 1540 1528 1492 1492 1492 1493 1494 1495 1497 1500 1503 1506 1508 1512 1515 1518 1520 1523 1524 1527 1529 1532 1533 1535 1536 1537 1537 1538 1538 1539 1539 1540 1540 1540 1540 1540 1540 1540 1540 1540 1540 1540 1540